Tracking 22994 objects as of 8-May-2021
HD Live streaming from Space Station
objects crossing your sky now

SL-16 R/B

Track SL-16 R/B now!
10-day predictions
SL-16 R/B is classified as:


NORAD ID: 25861
Int'l Code: 1999-039B
Perigee: 630.0 km
Apogee: 651.5 km
Inclination: 98.2 °
Period: 97.4 minutes
Semi major axis: 7011 km
RCS: 13.5291 m2 (large)
Launch date: July 17, 1999
Source: Commonwealth of Independent States (former USSR) (CIS)
Launch site: TYURATAM MISSILE AND SPACE COMPLEX (TTMTR)

Note: This is a ROCKET BODY
aabbcc
Your satellite tracking list
Your tracking list is empty




NASA's NSSDC Master Catalog

Two Line Element Set (TLE):
1 25861U 99039B   21127.95495973  .00000027  00000-0  11205-4 0  9998
2 25861  98.2061 142.5373 0015314 190.9440 228.1417 14.78637314175570
Source of the keplerian elements: AFSPC